Regional Weather Roundup
Issued by NWS

Home | Current Version | Previous Version | Text Only | Print | Product List | Glossary On
Versions: 1 2 3 4 5 6 7 8 9 10 11 12 13 14 15 16 17 18 19 20 21 22 23 24 25 26 27 28 29 30 31 32 33 34 35 36 37 38 39 40 41 42 43 44 45 46 47 48 49 50
000
ASUS44 KMEG 281110
RWRTN
TENNESSEE HOURLY STATE WEATHER ROUNDUP
NATIONAL WEATHER SERVICE MEMPHIS TN
600 AM CDT SAT MAR 28 2015

TNZ002-004-019-021-049-052-054-088>092-281200-
WEST TENNESSEE

CITY           SKY/WX    TMP DP  RH WIND       PRES   REMARKS
MEMPHIS INTL   CLOUDY    37  21  52 SE5       30.22R WCI  33
NWS MEMPHIS      N/A     32 N/A N/A MISG        N/A
JACKSON        MOCLDY    29  25  85 CALM      30.20R
DYERSBURG      MOCLDY    32  16  51 CALM      30.22R
UNION CITY     CLEAR     27  23  86 CALM      30.20R
PARIS          CLEAR     21  18  86 NE3       30.20R
LEXINGTON      CLEAR     25  19  80 CALM      30.18R
SAVANNAH       PTCLDY    28  25  86 CALM      30.20R
$$

TNZ008-025-027-028-033-062-065-066-281200-
NORTH MIDDLE TENNESSEE

CITY           SKY/WX    TMP DP  RH WIND       PRES   REMARKS
NASHVILLE      CLEAR     28  18  66 N7        30.19R WCI  21
CLARKSVILLE    CLEAR     25  17  72 N5        30.21R WCI  19
SMYRNA         CLEAR     29  18  63 N10       30.20R WCI  20
COOKEVILLE     CLEAR     27  21  80 NW3       30.13R
CROSSVILLE     CLOUDY    28  21  75 NW9       30.08R WCI  19
$$

TNZ061-075-076-078-094-096-097-281200-
SOUTH MIDDLE TENNESSEE

CITY           SKY/WX    TMP DP  RH WIND       PRES   REMARKS
FAYETTEVILLE   CLEAR     27  19  74 CALM      30.15R
TULLAHOMA      CLEAR     25  16  68 CALM      30.14R
WINCHESTER     CLEAR     28  18  64 N5        30.15R WCI  23
MCMINNVILLE    CLEAR     27  18  69 N5        30.14R WCI  21
COLUMBIA       CLEAR     27  27 100 CALM      30.16S
SHELBYVILLE    CLEAR     27  23  86 CALM      30.18R
$$

TNZ017-018-042-046-047-281200-
NORTHEAST TENNESSEE

CITY           SKY/WX    TMP DP  RH WIND       PRES   REMARKS
TRI CITIES     MOCLDY    28  12  51 NW9       30.04R WCI  19
ELIZABETHTON   PTSUNNY   27  12  54 NW9       30.02R WCI  17
$$

TNZ012-013-036-069-073-074-281200-
CENTRAL EAST TENNESSEE

CITY           SKY/WX    TMP DP  RH WIND       PRES   REMARKS
KNOXVILLE      MOCLDY    32  19  58 N7        30.10R WCI  26
OAK RIDGE      CLOUDY    32  21  64 VRB3      30.12R
GATLINBURG     CLOUDY    30  16  55 N5        30.09R WCI  25
MORRISTOWN     CLOUDY    30  16  55 N7        30.08R WCI  23
$$

TNZ083-085-099-281200-
SOUTHEAST TENNESSEE

CITY           SKY/WX    TMP DP  RH WIND       PRES   REMARKS
CHATTANOOGA    PTCLDY    33  17  51 N12       30.14R WCI  24
$$

SKY/WX REPORTED AS FAIR MEANS FEW OR NO CLOUDS BELOW
12 THOUSAND FEET.



USA.gov is the U.S. government's official web portal to all federal, state and local government web resources and services.